DW5479 Weather Reports


Display with metric or nautical units.
time (UTC)temp
F
wind
direction
speed
MPH
gust
MPH
rain 1hr
in
rain 24hr
in
rain mn
in
humidity
%
barometer
mb
20260505234609 84 162 3.0 7.0 0.00 0.00 0.00 70 1003.3
20260505233043 85 139 5.0 10.0 0.00 0.00 0.00 68 1003.3
20260505231603 86 142 4.0 7.0 0.00 0.00 0.00 68 1003.3
20260505230015 86 153 3.0 8.0 0.00 0.00 0.00 68 1003.4
20260505224540 85 185 3.0 7.0 0.00 0.00 0.00 69 1003.4
20260505223002 86 157 3.0 10.0 0.00 0.00 0.00 68 1003.6
20260505221523 86 136 3.0 9.0 0.00 0.00 0.00 69 1003.5
20260505220100 85 155 2.0 8.0 0.00 0.00 0.00 68 1003.8
20260505214521 86 190 4.0 9.0 0.00 0.00 0.00 66 1004.0
20260505213027 87 152 4.0 9.0 0.00 0.00 0.00 64 1004.3
20260505211551 87 150 3.0 8.0 0.00 0.00 0.00 65 1004.5
20260505204514 85 129 3.0 9.0 0.00 0.00 0.00 67 1004.9
20260505203031 84 196 4.0 8.0 0.00 0.00 0.00 68 1005.1
20260505201543 84 164 3.0 6.0 0.00 0.00 0.00 69 1005.4
20260505200101 84 156 3.0 8.0 0.00 0.00 0.00 69 1005.5
20260505194526 84 160 3.0 8.0 0.00 0.00 0.00 68 1005.7
20260505193037 84 145 3.0 9.0 0.00 0.00 0.00 69 1006.1
20260505191554 84 141 3.0 7.0 0.00 0.00 0.00 70 1006.2
20260505190100 83 124 4.0 8.0 0.00 0.00 0.00 71 1006.4
20260505184517 82 141 4.0 10.0 0.00 0.00 0.00 72 1006.7
20260505183032 81 154 4.0 7.0 0.00 0.00 0.00 74 1006.9
20260505181553 81 170 3.0 6.0 0.00 0.00 0.00 75 1007.1
20260505180006 80 155 3.0 9.0 0.00 0.00 0.00 76 1007.1
20260505174531 80 167 4.0 9.0 0.00 0.00 0.00 76 1007.2
20260505173046 79 182 3.0 10.0 0.00 0.00 0.00 79 1007.4
20260505171551 78 147 3.0 8.0 0.00 0.00 0.00 80 1007.3
20260505170024 78 160 3.0 7.0 0.00 0.00 0.00 80 1007.4
20260505164540 77 184 3.0 6.0 0.00 0.00 0.00 82 1007.4
20260505163056 76 165 3.0 9.0 0.00 0.00 0.00 83 1007.6
20260505161515 75 164 3.0 6.0 0.00 0.00 0.00 84 1007.6
20260505153006 73 169 5.0 9.0 0.00 0.00 0.00 86 1007.4
20260505151545 73 183 4.0 9.0 0.00 0.00 0.00 86 1007.5
20260505124528 69 162 4.0 10.0 0.00 0.00 0.00 87 1007.2
20260505123109 69 159 1.0 11.0 0.00 0.00 0.00 87 1007.1
20260505121513 69 161 3.0 11.0 0.00 0.00 0.00 87 1006.8
20260505120029 69 167 4.0 11.0 0.00 0.00 0.00 87 1006.7
20260505114609 69 150 6.0 11.0 0.00 0.00 0.00 87 1006.5
20260505113105 69 162 3.0 8.0 0.00 0.00 0.00 87 1006.4
20260505111520 69 146 4.0 12.0 0.00 0.00 0.00 87 1006.5
20260505101550 69 176 4.0 12.0 0.00 0.00 0.00 87 1006.5
20260505100025 69 180 4.0 11.0 0.00 0.00 0.00 87 1006.7
20260505094547 68 179 4.0 11.0 0.00 0.00 0.00 87 1006.6
20260505093059 68 148 2.0 10.0 0.00 0.00 0.00 87 1006.7
20260505091512 68 141 6.0 11.0 0.00 0.00 0.00 87 1006.6
20260505090034 68 168 3.0 7.0 0.00 0.00 0.00 87 1006.9
20260505084548 68 179 3.0 9.0 0.00 0.00 0.00 87 1006.9
20260505083012 68 177 3.0 7.0 0.00 0.00 0.00 87 1007.4
20260505081540 68 172 2.0 7.0 0.00 0.00 0.00 87 1007.5
20260505080057 68 176 2.0 5.0 0.00 0.00 0.00 87 1007.5
20260505074520 68 199 3.0 4.0 0.00 0.00 0.00 87 1007.7
20260505073030 68 151 2.0 5.0 0.00 0.00 0.00 87 1008.0
20260505071548 68 167 1.0 5.0 0.00 0.00 0.00 87 1008.2
20260505070003 68 152 2.0 8.0 0.00 0.00 0.00 87 1008.3
20260505064523 68 156 2.0 8.0 0.00 0.00 0.00 87 1008.3
20260505063041 68 176 4.0 8.0 0.00 0.00 0.00 87 1008.4
20260505061557 68 182 3.0 8.0 0.00 0.00 0.00 87 1008.6
20260505060009 68 179 4.0 9.0 0.00 0.00 0.00 86 1008.7
20260505054527 69 156 5.0 10.0 0.00 0.00 0.00 86 1008.8
20260505053043 69 172 5.0 11.0 0.00 0.00 0.00 86 1008.7
20260505051513 69 178 4.0 10.0 0.00 0.00 0.00 85 1008.7
20260505041529 71 162 6.0 10.0 0.00 0.00 0.00 83 1008.8
20260505040041 71 140 5.0 11.0 0.00 0.00 0.00 83 1008.8
20260505034600 72 153 4.0 14.0 0.00 0.00 0.00 82 1008.6
20260505033016 72 163 6.0 14.0 0.00 0.00 0.00 81 1008.7
20260505031541 73 46 5.0 11.0 0.00 0.00 0.00 81 1008.9
20260505030008 73 195 5.0 11.0 0.00 0.00 0.00 80 1008.8
20260505024544 73 148 6.0 9.0 0.00 0.00 0.00 80 1008.5
20260505023058 74 179 5.0 12.0 0.00 0.00 0.00 79 1008.4
20260505021506 74 178 5.0 9.0 0.00 0.00 0.00 78 1008.3
20260505020024 74 136 3.0 10.0 0.00 0.00 0.00 77 1008.1
20260505014544 75 154 3.0 9.0 0.00 0.00 0.00 77 1007.9
20260505013102 75 147 4.0 10.0 0.00 0.00 0.00 76 1008.0
20260505011515 76 203 2.0 7.0 0.00 0.00 0.00 74 1007.9
20260505010028 77 121 3.0 9.0 0.00 0.00 0.00 72 1007.7
20260505004547 78 161 5.0 9.0 0.00 0.00 0.00 71 1007.5
20260505003100 78 193 4.0 11.0 0.00 0.00 0.00 70 1007.7
20260505001535 79 138 4.0 11.0 0.00 0.00 0.00 68 1007.8
20260505000107 79 172 6.0 11.0 0.00 0.00 0.00 68 1008.0